To NAV CANADA Home Page Login to a new session Search on AWWS site Disclaimer Vers la page française équivalente Tips FAQ What's new on the site To the Forecasts and Observations / NOTAM section To "File a Flight Plan" website Publications and other links Update of the User's profile FIC Telephone Numbers My Weather Data Folder Route Weather Data Regional Weather Data Local Weather Data To the Forecasts and Observations / NOTAM section
Request Generated 04/25/2019 at 08:29:53 UTC . Weather information available at that time is displayed.

METAR/TAF

BEAVER CREEK/YT    

LWIS CYXQ 250800Z AUTO 00000KT M03/M09 A3010=
LWIS CYXQ 250700Z AUTO VRB02KT M02/M11 A3008=
LWIS CYXQ 250600Z AUTO VRB02KT M01/M12 A3007=

CYXQ - No TAF is issued for this station

Your time UTC time
Weather data provided by Environment Canada and NAV CANADA